User: anonymous   Login
Location: Mactaquac Provincial Park
(45.9573°N, 66.8897°W)
Time: 13:39:11
(UTC-04:00)
Language:

Cosmos 1867 - Orbit

View from above orbital plane
View from above orbital plane
View from above satellite
View from above satellite

Ground track
Ground track

The orbit data is extracted from the following two-line orbital elements,

1 18187U 87060A   16337.65332771 -.00000128  00000-0 -10686-4 0  9998
2 18187  65.0102  58.8227 0018545 258.3562 101.5441 14.31080129535870
Epoch (UTC): 02 December 2016 15:40:47
Eccentricity: 0.0018545
inclination: 65.0102°
perigee height: 775 km
apogee height: 801 km
right ascension of ascending node: 58.8227°
argument of perigee: 258.3562°
revolutions per day: 14.31080129
mean anomaly at epoch: 101.5441°
orbit number at epoch: 53587

The dashed part of the orbit path shows where the satellite is in the earth's shadow,  

DLR